Location: *
(13.0000°N, 151.6000°E)
Time: 14:29:36
(UTC+00:00)

Palapa 6 Rocket - Pass Details

Date: 01 April 2020
Orbit: 485 x 1217 km, 22.7° (Epoch: 03 June)

Event Time Altitude Azimuth Distance (km) Brightness Sun altitude
Exits shadow 18:56:17 18° 289° (WNW) 1,462 4.4 -13.6°
Maximum altitude 18:59:06 38° 349° (N) 975 4.0 -13.0°
Drops below altitude 10° 19:03:57 10° 58° (ENE) 2,246 7.1 -11.8°
Sets 19:06:52 0° 65° (ENE) 3,313 8.4 -11.1°
